Skip Page Navigation
NASA JPL Caltech
NASA Logo - Jet Propulsion Laboratory + View the NASA Portal
+ Near-Earth Object (NEO) Program
Search JPL
JPL Home Earth Solar System Stars & Galaxies Technology
JPL Solar System Dynamics
BODIES ORBITS EPHEMERIDES TOOLS PHYSICAL DATA DISCOVERY FAQ SITE MAP
JPL Small-Body Database Browser
Search: [ help ]  
8431 Haseda (1997 YQ13)
Classification: Main-belt Asteroid          SPK-ID: 2008431
Ephemeris | Orbit Diagram | Orbital Elements | Physical Parameters | Discovery Circumstances ]

[ show orbit diagram ]
Orbital Elements at Epoch 2456800.5 (2014-May-23.0) TDB
Reference: JPL 4 (heliocentric ecliptic J2000)
 Element Value Uncertainty (1-sigma)   Units 
e .04699001847266683 5.2397e-08  
a 2.807364897702636 2.4731e-08 AU
q 2.675446769300073 1.4372e-07 AU
i 1.600114507395213 6.0729e-06 deg
node 246.2592561264658 0.00022593 deg
peri 218.2649006319719 0.00024238 deg
M 192.0076838774492 8.1255e-05 deg
tp 2457602.240166463334
(2016-Aug-01.74016646)
0.0003882 JED
period 1718.093223479618
4.70
2.2703e-05
6.216e-08
d
yr
n .2095346137684541 2.7688e-09 deg/d
Q 2.9392830261052 2.5893e-08 AU
  Orbit Determination Parameters
   # obs. used (total)      1232  
   data-arc span      11691 days (32.01 yr)  
   first obs. used      1981-07-02  
   last obs. used      2013-07-05  
   planetary ephem.      DE431  
   SB-pert. ephem.      SB431-BIG16  
   condition code      0  
   fit RMS      .53048  
   data source      ORB  
   producer      Otto Matic  
   solution date      2013-Aug-05 15:57:34  

Additional Information
 Earth MOID = 1.69213 AU 
 T_jup = 3.320 
[ show covariance matrix ]

Ephemeris | Orbit Diagram | Orbital Elements | Physical Parameters | Discovery Circumstances ]

Physical Parameter Table
Parameter Symbol Value Units Sigma Reference Notes
absolute magnitude H 12.7 mag n/a MPO266003  

8431 Haseda           Discovered 1997 Dec. 31 by T. Kobayashi at Oizumi.
Haseda Kastumi (b. 1945) is an amateur astronomer in Aichi prefecture. During 2000-2002 he discovered the four novae V463 Sct, V1178 Sco, V2540 Oph and V4743 Sgr. He has also discovered 65 new variables, including some Wolf-Rayet stars.
NOTE: some special characters may not display properly (any characters within {} are an attempt to place the proper accent above a character)
Reference: 20050919/MPCPages.arcLast Updated: 2005-09-26

Alternate Designations
 1997 YQ13 = 1975 EG5 = 1981 NH1 = 1982 VG6 = 1989 ER = 1991 ST1 
Ephemeris | Orbit Diagram | Orbital Elements | Physical Parameters | Discovery Circumstances ]
ABOUT SSD CREDITS/AWARDS PRIVACY/COPYRIGHT GLOSSARY LINKS
FirstGov 2014-Apr-24 16:22 UT
(server date/time)  
NASA Home Page
Site Manager:   Donald K. Yeomans
Webmaster  Alan B. Chamberlin